Погода в Овощном

Россия / Ростовская область     47°06′12″N   39°38′49″E
темп.,
°C
ветер,
м/с
пор.,
м/с
влажн.,
%
обл.,
%
осадки,
мм/ч
давл.,
гПа
погр.,
м
18 апреля, вс
вс1800:00+7сз11755 0.0 102110
03:00+7юв22775 0.0 102110
06:00+7всв2273100 0.0 101947
09:00+9вюв3569100 0.0 1019246
12:00+9в3478100 0.5 1018286
15:00+9юв2385100 0.5 1018241
18:00+9в2388100 0.0 1018174
21:00+8вюв229232 0.0 101833
19 апреля, пн
пн1900:00+7св119381 0.0 101710
03:00+8св2292100 0.0 101728
06:00+8в1193100 0.1 101712
09:00+9всв2388100 0.2 1016135
12:00+10св1291100 0.4 101698
15:00+13вюв117597 0.5 1015524
18:00+12ююз2287100 0.0 101532
21:00+10юв2294100 0.0 101526
20 апреля, вт
вт2000:00+10вюв3796100 0.0 1012182
03:00+10всв4798100 1.8 1010219
06:00+10всв6129999 3.7 1006314
09:00+12всв6119899 10.1 1004454
12:00+17юв6107839 0.3 1002587
15:00+18юз8117967 0.6 1003843
18:00+16ююз713725 0.0 10041001
21:00+12ююз9167010 0.0 1006947
21 апреля, ср
ср2100:00+10ююз101875100 0.0 10071109
03:00+10ююз101683100 0.1 10091006
06:00+9юз81387100 0.1 1012781
09:00+11зюз8108187 0.1 1015805
12:00+13зюз7966100 0.4 10171309
15:00+15зюз685698 0.7 10171919
18:00+13зюз47655 0.1 1019645
21:00+9юз35795 0.1 1021100
22 апреля, чт
чт2200:00+8юз34805 0.0 102261
03:00+7зюз22785 0.0 102224
06:00+7юз1178100 0.0 102310
09:00+12ю2163100 0.0 1023359
12:00+15ююв2251100 0.0 10231295
15:00+17ю23465 0.0 10221747
18:00+16ююз225524 0.0 102299
21:00+11сз33828 0.0 102250